User: anonymous   Login
Location: Franzen
(48.6167°N, 15.3833°E)
Time: 12:58:56
(UTC+00:00)
Language:

Cosmos 1570 Rocket - Orbit

View from above orbital plane
View from above orbital plane
View from above satellite
View from above satellite

Ground track
Ground track

The orbit data is extracted from the following two-line orbital elements,

1 15032U 84056B   21173.75478309  .00000009  00000-0  12160-4 0  9994
2 15032  74.0710 274.9249 0016438  65.0457 295.2401 14.34831368936987
Epoch (UTC): 22 June 2021 18:06:53
Eccentricity: 0.0016438
inclination: 74.0710°
perigee height: 764 km
apogee height: 787 km
right ascension of ascending node: 274.9249°
argument of perigee: 65.0457°
revolutions per day: 14.34831368
mean anomaly at epoch: 295.2401°
orbit number at epoch: 93698

The dashed part of the orbit path shows where the satellite is in the earth's shadow,  

DLR